Location: DaVinci Observatory
(43.1080°N, 78.6453°W)
Time: 14:48:48
(UTC-04:00)

ISS - Pass Details

Date: 16 October 2017
Orbit: 400 x 408 km, 51.6° (Epoch: 24 October)

Event Time Altitude Azimuth Distance (km) Brightness Sun altitude
Rises 19:17:18 0° 295° (WNW) 2,324 1.2 -9.4°
Reaches altitude 10° 19:19:33 10° 283° (WNW) 1,462 0.4 -9.8°
Maximum altitude 19:22:24 27° 223° (SW) 804 -1.8 -10.4°
Drops below altitude 10° 19:25:14 10° 163° (SSE) 1,457 -1.2 -10.9°
Sets 19:27:29 0° 151° (SSE) 2,314 -0.3 -11.3°
Enters shadow 19:27:33 - 150° (SSE) 2,340 -0.2 -11.3°
